Regional Weather Roundup
Issued by NWS Midland/Odessa, TX

Skip options and go directly to product.
Home | Oldest Version | Previous Version | Current Version | All | Text Only | Save Text | Print | Product List | Glossary On

Skip product version selection by date and time.   
888
ASUS44 KMAF 242302
RWRMAF
MIDLAND AREA WEATHER ROUNDUP
NATIONAL WEATHER SERVICE MIDLAND TX
600 PM CDT THU APR 24 2014

...IN SOUTHWEST TEXAS AND SOUTHEAST NEW MEXICO...

CITY           SKY/WX    TMP DP  RH WIND       PRES   REMARKS
ALPINE         SUNNY     80  17   9 N10       30.07F
ANDREWS        FAIR      78  25  14 NW10G17   29.98S
ARTESIA        MOSUNNY   75  23  14 NE3       29.97F
BIG SPRING     SUNNY     82  24  12 W10       29.97S
CARLSBAD       MOSUNNY   79  21  11 E9        29.95F
DRYDEN           N/A     93  14   5 NE12G21   29.88S
FORT STOCKTON  SUNNY     81  16   9 MISG      29.96F
GUAD PASS      SUNNY     77  12   8 SW17G23   30.06F
HOBBS          SUNNY     75  19  12 W7        29.99
MARFA          SUNNY     81  19  10 W7G17     30.06S
MIDLAND AIRPK  SUNNY     80  25  13 CALM      29.97S
MIDLAND INTL   SUNNY     80  28  15 N5        29.96S
ODESSA         SUNNY     79  22  12 MISG      29.97S
PECOS          SUNNY     82  26  13 N3        29.94F
PRESIDIO       FAIR      89  17   7 W8        29.90F
SEMINOLE       SUNNY     76  28  16 NW10      29.99F
SNYDER         SUNNY     79  28  15 N14G23    29.94F
WINK           SUNNY     83  20   9 VRB6      29.93F
$$
...OTHER STATIONS IN TEXAS...

CITY           SKY/WX    TMP DP  RH WIND       PRES   REMARKS
ABILENE        SUNNY     81  33  17 N8        29.91S
AMARILLO       SUNNY     73  15  11 NW7       29.96F
AUSTIN         MOSUNNY   86  65  49 E5        29.80S
BROWNSVILLE    PTSUNNY   81  71  71 SE14      29.78R
CORPUS CHRISTI PTSUNNY   82  69  64 SE15      29.81R
DALLAS FTW     SUNNY     82  44  26 NW17      29.82R
DEL RIO        SUNNY     96  18   6 NW14G20   29.79F
EL PASO        MOSUNNY   81  10   7 NW8       29.96F
HOUSTON INT    CLOUDY    82  65  56 SW7       29.83S
LUBBOCK        PTSUNNY   76  21  12 NW7       29.96F
SAN ANGELO     SUNNY     85  27  12 N9G21     29.90S
SAN ANTONIO    MOSUNNY   88  63  43 SE13      29.80S
WACO           SUNNY     84  44  24 N15       29.83R
WICHITA FALLS  NOT AVBL
$$
...OTHER LOCATIONS IN NEW MEXICO...

CITY           SKY/WX    TMP DP  RH WIND       PRES   REMARKS
ALAMAGORDO     MOSUNNY   77   7   6 N10       30.00F
ALBUQUERQUE    MOSUNNY   69   8   9 SE10      30.01F
CANNON AFB     NOT AVBL
CLOVIS         PTSUNNY   70  25  18 SW12      30.02F
HOLLOMAN AFB   NOT AVBL
ROSWELL        MOSUNNY   78  23  13 NE7       29.95F
RUIDOSO        MOSUNNY   66  -6   5 W8G23     30.12F
SANTA FE       CLOUDY    67  -6   5 W20G25    30.03S
TRUTH OR CONSE SUNNY     78  10   7 S18G26    29.97F
TUCUMCARI      CLOUDY    73  23  15 S13       29.92F
$$

USA.gov is the U.S. government's official web portal to all federal, state and local government web resources and services.